Location: Dead Woman Crossing
(43.5369°N, 106.3228°W)
Time: 02:57:50
(UTC+00:00)

COSMOS 2251 DEB - Pass Details

Date: 06 December 2022
Orbit: 765 x 800 km, 74.0° (Epoch: 25 January)

Event Time Altitude Azimuth Distance (km) Brightness Sun altitude
Rises 00:19:45 0° 344° (NNW) 3,256 ? -9.1°
Reaches altitude 10° 00:22:15 10° 351° (N) 2,321 ? -9.5°
Maximum altitude 00:27:17 45° 64° (ENE) 1,039 ? -10.3°
Drops below altitude 10° 00:32:16 10° 137° (SE) 2,297 ? -11.2°
Sets 00:34:44 0° 143° (SE) 3,219 ? -11.6°
